Prévision chaque heure sur Domdidier


  Conditions Température Point de rosée PrécipitationProbabilité d'orage Vent Pression UV Index Couverture nuageuse Visibilité
 06:25     18:50   La longueur du jour: 12:25 Aujourd'hui
17:00 20 °
Sensation de: 14.1°
2.0°   0%
6
Max: 23 km/h
1022.0 hPa 1% 27 km
18:00 17 °
Sensation de: 12.5°
2.0°   0%
5
Max: 22 km/h
1022.0 hPa   1% 26 km
19:00 14 °
Sensation de: 9.8°
2.1°   0%
4
Max: 19 km/h
1022.4 hPa   1% 25 km
20:00 12 °
Sensation de: 7.5°
2.4°   0%
3
Max: 14 km/h
1023.0 hPa   6% 25 km
21:00 10 °
Sensation de: 5.2°
2.7°   0%
3
Max: 10 km/h
1023.6 hPa   13% 24 km
22:00 8 °
Sensation de: 4.1°
2.9°   0%
2
Max: 8 km/h
1024.0 hPa   20% 23 km
23:00 7 °
Sensation de: 2.9°
3.0°   0%
2
Max: 7 km/h
1024.0 hPa   23% 23 km
 06:23     18:51   La longueur du jour: 12:28 Demain
00:00 6 °
Sensation de: 1.8°
2.9°   0%
2
Max: 6 km/h
1024.0 hPa   25% 22 km
01:00 6 °
Sensation de: 1.7°
2.6°   0%
1
Max: 5 km/h
1024.0 hPa   27% 22 km
02:00 5 °
Sensation de: 0.3°
2.3°   0%
2
Max: 5 km/h
1024.0 hPa   32% 22 km
03:00 4 °
Sensation de: -0.2°
2.1°   0%
2
Max: 6 km/h
1024.0 hPa   37% 22 km
04:00 4 °
Sensation de: -1.3°
1.9°   0%
3
Max: 8 km/h
1023.6 hPa   43% 22 km
05:00 4 °
Sensation de: -1.7°
1.7°   0%
3
Max: 8 km/h
1023.4 hPa   4% 22 km
06:00 3 °
Sensation de: -2.2°
1.4°   0%
3
Max: 8 km/h
1023.6 hPa   47% 22 km
07:00 3 °
Sensation de: -2.2°
1.3°   0%
3
Max: 10 km/h
1024.0 hPa   48% 22 km
08:00 5 °
Sensation de: -1.4°
1.8°   0%
4
Max: 13 km/h
1024.0 hPa   49% 22 km
09:00 7 °
Sensation de: 0.1°
2.4°   0%
5
Max: 19 km/h
1024.0 hPa 51% 22 km
10:00 9 °
Sensation de: 2.2°
2.8°   0%
6
Max: 23 km/h
1023.6 hPa 52% 22 km
11:00 11 °
Sensation de: 4.0°
3.0°   0%
7
Max: 25 km/h
1023.2 hPa 50% 22 km
12:00 12 °
Sensation de: 3.8°
2.9°   0%
9
Max: 27 km/h
1023.0 hPa 43% 23 km
13:00 13 °
Sensation de: 3.8°
2.8°   0%
10
Max: 28 km/h
1022.6 hPa 41% 23 km
14:00 13 °
Sensation de: 2.8°
2.6°   0%
12
Max: 30 km/h
1022.2 hPa 38% 24 km
15:00 13 °
Sensation de: 1.1°
2.7°   0%
14
Max: 32 km/h
1022.2 hPa 46% 23 km
16:00 13 °
Sensation de: -0.4°
2.6°   0%
16
Max: 34 km/h
1022.6 hPa 34% 25 km
17:00 12 °
Sensation de: -0.2°
2.5°   0%
15
Max: 34 km/h
1023.4 hPa 33% 26 km
18:00 11 °
Sensation de: -0.0°
3.3° 0.3 mm 0%
12
Max: 31 km/h
1024.2 hPa   49% 20 km
19:00 9 °
Sensation de: -0.5°
3.6°   0%
10
Max: 29 km/h
1025.0 hPa   33% 27 km
20:00 8 °
Sensation de: -1.3°
3.6°   0%
9
Max: 27 km/h
1025.8 hPa   32% 26 km
21:00 7 °
Sensation de: -1.0°
3.8°   0%
7
Max: 24 km/h
1026.8 hPa   49% 23 km
22:00 6 °
Sensation de: -1.1°
3.7°   0%
6
Max: 23 km/h
1027.6 hPa   24% 25 km
23:00 5 °
Sensation de: -1.9°
3.5°   0%
6
Max: 22 km/h
1028.0 hPa   22% 25 km
 06:21     18:53   La longueur du jour: 12:32 Mardi 26 Mar
00:00 5 °
Sensation de: -3.3°
3.3°   0%
7
Max: 23 km/h
1028.4 hPa   23% 24 km
01:00 4 °
Sensation de: -4.5°
2.9°   0%
8
Max: 24 km/h
1028.8 hPa   25% 22 km
02:00 4 °
Sensation de: -5.8°
2.7°   0%
9
Max: 25 km/h
1029.0 hPa   41% 19 km
03:00 4 °
Sensation de: -6.1°
2.5°   0%
9
Max: 25 km/h
1029.0 hPa   61% 18 km
04:00 3 °
Sensation de: -7.1°
2.3°   0%
10
Max: 26 km/h
1029.0 hPa   80% 18 km
05:00 3 °
Sensation de: -8.0°
2.2°   0%
11
Max: 26 km/h
1029.0 hPa   82% 19 km
06:00 3 °
Sensation de: -8.2°
2.0°   0%
11
Max: 27 km/h
1029.2 hPa   78% 19 km
07:00 3 °
Sensation de: -8.9°
1.9°   0%
12
Max: 28 km/h
1029.6 hPa   75% 19 km
08:00 3 °
Sensation de: -9.1°
1.9°   0%
13
Max: 30 km/h
1030.0 hPa   67% 22 km
09:00 5 °
Sensation de: -9.2°
2.1°   0%
15
Max: 32 km/h
1029.8 hPa 53% 25 km
10:00 6 °
Sensation de: -8.9°
2.2°   0%
17
Max: 34 km/h
1029.4 hPa 38% 25 km
11:00 7 °
Sensation de: -8.1°
2.1°   0%
18
Max: 35 km/h
1028.8 hPa 26% 25 km
12:00 8 °
Sensation de: -6.9°
2.0°   0%
18
Max: 36 km/h
1028.2 hPa 22% 26 km
13:00 9 °
Sensation de: -6.8°
1.8°   0%
19
Max: 37 km/h
1027.4 hPa 17% 26 km
14:00 10 °
Sensation de: -6.1°
1.5°   0%
19
Max: 36 km/h
1026.6 hPa 12% 27 km
15:00 10 °
Sensation de: -5.1°
1.3°   0%
18
Max: 36 km/h
1026.2 hPa 8% 28 km
16:00 10 °
Sensation de: -4.0°
1.1°   0%
17
Max: 35 km/h
1026.2 hPa 4% 28 km